sat.trackr.live / text

‹ back to catalog

STARLINK-4662

NORAD 53738 · 2022-107AQ

PAYLOAD ACTIVE UNKNOWN

§ Identity

Operator
Country
US
Launch date
2022-09-05
Launch site
AFETR
Launch vehicle
Mass (kg)
RCS (m²)

Purposes: comms

External: N2YO · Heavens-Above · Gunter

§ Orbital elements

Epoch: 2026-09-20T21:50:01.104000Z

Period
93.85 min
Inclination
53.1595°
Eccentricity
0.0001288
Mean motion
15.34386134 rev/d
Perigee alt
461.9 km
Apogee alt
463.6 km
Semi-major
6,840.9 km
B*
1.6626e-5
RAAN
91.7365°
Arg perigee
93.1996°
Mean anomaly
266.9154°
Rev number
22,412

§ Raw data

STARLINK-46621 53738U 22107AQ  26263.90973500  .00000185  00000+0  16626-4 0  99982 53738  53.1595  91.7365 0001288  93.1996 266.9154 15.34386134224125

JSON: /api/v1/satellites/53738 · /tle

For live sub-satellite position, see the globe view (requires WebGL).

§ Visibility from observer

Set your observer location to see the next 7 days of passes ≥ 10°. The values pass through the URL so the page stays shareable.

No JS? Fill the form by hand. The geolocation button needs JavaScript.